Location: Chicago
(41.8500°N, 87.6500°W)
Time: 13:31:32
(UTC-05:00)

Envisat - Visible Passes

Search period start: 21 May 2018 00:00
Search period end: 31 May 2018 00:00
Orbit: 764 x 766 km, 98.2° (Epoch: 20 May)

Date Brightness Start Highest point End Pass type
(mag) Time Alt. Az. Time Alt. Az. Time Alt. Az.
21 May 3.9 20:33:45 10° S 20:38:40 51° W 20:43:37 10° NNW visible
22 May 5.7 21:39:11 10° WSW 21:41:28 13° W 21:43:46 10° WNW visible
23 May 4.9 21:00:01 10° SSW 21:04:23 29° W 21:08:47 10° NW visible
25 May 5.6 21:27:00 10° SW 21:30:11 17° W 21:33:23 10° NW visible
26 May 4.5 20:48:30 10° SSW 20:53:09 36° W 20:57:51 10° NNW visible
28 May 5.4 21:15:08 10° SW 21:18:55 21° W 21:22:44 10° NW visible
30 May 5.8 21:43:03 10° WSW 21:44:47 12° W 21:46:32 10° WNW visible
